Theta_e
295 294 294 295 295 296 297 298 300 299 299 299 299 300 300 300 300 300 300 300 300 300
293 293 293 294 295 295 296 297 298 299 298 299 298 298 298 298 297 299 299 299 300 299
293 293 293 293 293 294 295 295 296 296 298 298 298 297 298 297 297 297 298 299 299 299
293 294 294 293 293 294 295 295 295 295 296 296 297 297 297 297 297 296 297 298 298 298
295 297 297 296 296 295 294 295 295 295 295 296 296 297 296 296 296 295 296 297 297 297
296 296 296 296 298 297 296 295 296 296 295 295 296 296 296 297 296 296 296 297 296 297
295 295 295 297 298 299 297 296 295 296 296 296 296 296 296 295 296 296 296 297 297 297
295 295 294 294 297 298 298 297 296 296 296 297 297 297 296 296 295 295 296 297 297 298
295 294 294 294 294 295 297 298 297 295 296 296 297 299 300 299 297 296 295 295 297 298
294 293 293 293 292 292 293 296 298 296 296 296 297 299 301 301 298 298 297 298 298 298
294 293 293 292 291 291 292 293 295 297 297 297 298 300 301 302 301 298 298 298 298 298
295 294 293 292 291 291 291 291 291 295 295 295 297 302 303 301 301 299 298 299 299 299
296 295 294 293 292 292 292 291 291 290 293 298 295 298 298 295 294 292 292 293 299 302
296 296 295 295 294 294 293 292 291 290 290 290 296 297 298 297 291 289 288 289 289 292
Wind_Speed
20 13 13 15 13 12 12 12 14 14 13 15 15 13 12 11 11 12 11 14 12 9
17 17 16 18 15 12 13 12 15 15 15 15 15 15 13 10 13 12 13 13 13 10
18 17 16 15 17 16 14 14 14 14 14 13 13 14 13 12 13 13 11 10 12 11
18 17 15 14 15 15 14 13 13 12 12 13 14 13 12 13 13 12 13 13 13 12
18 15 15 14 14 14 13 12 12 11 11 11 12 10 11 13 13 14 12 13 12 12
18 18 18 17 16 14 11 9 9 10 10 10 9 8 10 12 12 13 13 13 13 12
18 19 19 18 19 19 2 5 7 8 9 9 9 10 9 9 11 11 12 11 9 12
18 18 20 21 18 18 9 2 3 5 6 7 8 7 9 10 10 11 12 8 9 9
18 19 19 20 20 19 17 10 3 3 4 5 5 9 14 11 8 9 9 8 9 9
19 19 20 20 20 21 20 20 6 4 3 2 4 10 12 12 9 8 9 7 5 5
19 19 20 21 21 21 19 19 20 10 5 2 2 8 10 12 5 7 6 6 6 6
18 19 20 20 20 18 19 19 18 16 17 18 18 24 13 8 3 5 8 6 6 6
17 17 17 17 17 17 17 18 16 20 18 27 18 30 28 19 10 14 15 20 12 12
19 17 19 15 13 14 16 16 17 19 19 21 24 26 33 30 15 12 14 14 15 17
Wind_Direction
295 287 284 278 280 279 274 272 264 251 249 257 262 267 262 250 246 243 254 248 242 251
298 291 285 282 272 266 263 265 263 265 253 243 252 260 255 257 261 255 243 241 238 241
303 296 286 280 275 268 259 254 255 258 264 259 237 246 251 247 247 255 259 258 241 235
308 301 290 278 273 266 264 251 247 245 247 256 252 236 244 248 251 245 253 247 252 254
314 320 325 320 290 263 250 251 237 237 237 237 248 239 237 240 242 246 241 240 249 252
340 339 331 323 315 285 232 228 231 221 226 227 227 237 244 229 234 241 243 241 240 242
347 347 343 341 353 5 114 211 230 215 221 220 214 223 221 229 234 246 244 241 238 244
353 355 356 357 359 11 19 310 238 231 210 215 221 216 213 217 216 222 250 227 237 244
358 1 2 2 4 1 9 357 215 191 192 203 213 227 219 208 211 219 234 238 240 244
3 4 7 8 8 8 5 14 75 111 125 182 225 251 253 236 206 207 223 244 232 255
5 9 10 12 13 11 15 20 35 44 42 15 246 261 259 257 189 203 220 229 228 235
6 12 14 16 15 17 22 27 22 37 40 36 40 44 53 52 24 189 208 216 218 230
7 17 17 20 18 22 27 32 33 36 28 46 48 52 53 51 51 62 61 50 44 77
10 15 20 17 24 31 31 32 35 37 34 26 50 54 58 58 57 60 67 63 64 72